Location: Reeth
(54.3881°N, 1.9432°W)
Time: 18:03:18
(UTC+00:00)

Envisat - Visible Passes

Search period start: 21 February 2019 00:00
Search period end: 03 March 2019 00:00
Orbit: 764 x 766 km, 98.2° (Epoch: 21 February)

Date Brightness Start Highest point End Pass type
(mag) Time Alt. Az. Time Alt. Az. Time Alt. Az.
21 Feb 3.0 18:18:27 10° SSE 18:23:31 75° ENE 18:28:37 10° NNW visible
21 Feb 5.6 19:59:20 10° SW 20:03:07 21° W 20:06:56 10° NW visible
22 Feb 6.1 06:21:27 10° NE 06:24:38 16° E 06:27:47 10° SE visible
22 Feb 4.5 19:21:17 10° SSW 19:26:00 38° W 19:30:45 10° NNW visible
23 Feb 3.3 18:44:00 10° S 18:49:04 72° WSW 18:54:11 10° NNW visible
23 Feb 6.1 20:26:40 10° WSW 20:29:03 13° W 20:31:27 10° NW visible
24 Feb 3.0 18:07:19 10° SSE 18:12:20 63° ENE 18:17:23 10° N visible
24 Feb 5.3 19:47:38 10° SW 19:51:47 25° W 19:55:57 10° NW visible
25 Feb 6.3 06:10:46 10° NE 06:13:15 13° E 06:15:42 10° ESE visible
25 Feb 4.2 19:09:50 10° S 19:14:43 46° W 19:19:38 10° NNW visible
26 Feb 3.1 18:32:45 10° SSE 18:37:50 85° WSW 18:42:58 10° NNW visible
26 Feb 5.9 20:14:34 10° WSW 20:17:40 16° W 20:20:46 10° NW visible
27 Feb 5.0 19:36:02 10° SSW 19:40:27 30° W 19:44:55 10° NNW visible
28 Feb 6.7 06:00:31 10° ENE 06:01:50 11° E 06:03:09 10° E visible
28 Feb 3.8 18:58:28 10° S 19:03:27 55° W 19:08:28 10° NNW visible
01 Mar 3.0 18:21:33 10° SSE 18:26:38 81° ENE 18:31:45 10° NNW visible
01 Mar 5.7 20:02:41 10° SW 20:06:17 19° W 20:09:56 10° NW visible
02 Mar 4.7 19:24:30 10° SSW 19:29:08 35° W 19:33:50 10° NNW visible
